{"data":{"norad_id":54139,"epoch":"2026-05-25T04:34:21.611424Z","epoch_age_seconds":58893,"freshness":"FRESH","line1":"1 54139U 22138AC  26145.19052791  .00000021  00000+0  20084-4 0  9990","line2":"2 54139  87.9160 309.5373 0002070  94.0597 266.0773 13.19725398173738","mean_motion":13.19725398,"eccentricity":0.000207,"inclination_deg":87.916,"raan_deg":309.5373,"arg_perigee_deg":94.0597,"mean_anomaly_deg":266.0773,"bstar":2.0084e-5,"rev_number":17373,"period_min":109.11360819321,"perigee_km":1184.203302711,"apogee_km":1187.334759808,"semimajor_km":7563.9060312595,"source":"CELESTRAK","updated_at":"2026-05-25T13:38:22.590281Z"}}